MSR42 HECA-HEGN

Flight info

Callsign MSR42
Flight time 0h 43m
Altitude 27000
Route CVO L315 HGD
Aircraft B738/M-SDE2E3FGHIRWXY/LB1

Departure

Time 2026-05-06 10:05
Airport Cairo International Airport (HECA)

Arrival

Time 2026-05-06 10:48
Airport Hurghada International Airport (HEGN)
Time Latitude Longitude Altitude Speed Heading
2026-05-06 09:53 30.10439 31.39617 369 ft 0 kts 76°
2026-05-06 09:55 30.10435 31.39598 369 ft 4 kts 75°
2026-05-06 09:56 30.10427 31.39568 369 ft 4 kts 64°
2026-05-06 09:56 30.10413 31.39545 369 ft 4 kts 21°
2026-05-06 09:56 30.10402 31.39542 369 ft 1 kts 345°
2026-05-06 10:00 30.10405 31.39542 369 ft 1 kts 345°
2026-05-06 10:00 30.10431 31.39533 369 ft 7 kts 342°
2026-05-06 10:01 30.10494 31.39530 369 ft 11 kts 28°
2026-05-06 10:01 30.10525 31.39620 369 ft 15 kts 74°
2026-05-06 10:01 30.10540 31.39733 370 ft 8 kts 122°
2026-05-06 10:01 30.10485 31.39755 373 ft 9 kts 165°
2026-05-06 10:02 30.10419 31.39775 376 ft 10 kts 165°
2026-05-06 10:02 30.10346 31.39778 380 ft 11 kts 207°
2026-05-06 10:02 30.10295 31.39713 384 ft 11 kts 229°
2026-05-06 10:02 30.10238 31.39635 386 ft 14 kts 230°
2026-05-06 10:03 30.10156 31.39562 388 ft 16 kts 192°
2026-05-06 10:03 30.10116 31.39593 388 ft 9 kts 136°
2026-05-06 10:03 30.10056 31.39654 388 ft 14 kts 139°
2026-05-06 10:03 30.10001 31.39760 387 ft 17 kts 96°
2026-05-06 10:04 30.10029 31.39903 387 ft 20 kts 62°
2026-05-06 10:04 30.10122 31.40035 387 ft 23 kts 49°
2026-05-06 10:04 30.10374 31.40370 390 ft 94 kts 49°
2026-05-06 10:04 30.10965 31.41150 393 ft 160 kts 47°
2026-05-06 10:05 30.11793 31.42207 761 ft 190 kts 46°
2026-05-06 10:05 30.12751 31.43386 1375 ft 209 kts 45°
2026-05-06 10:05 30.13610 31.44721 2228 ft 209 kts 60°
2026-05-06 10:05 30.13995 31.46361 2789 ft 225 kts 90°
2026-05-06 10:06 30.13524 31.48094 3239 ft 236 kts 123°
2026-05-06 10:06 30.12349 31.49416 3866 ft 240 kts 146°
2026-05-06 10:06 30.10914 31.50512 4415 ft 249 kts 146°
2026-05-06 10:06 30.09518 31.51610 4987 ft 255 kts 146°
2026-05-06 10:07 30.08046 31.52770 5706 ft 258 kts 146°
2026-05-06 10:07 30.06527 31.53969 6276 ft 273 kts 146°
2026-05-06 10:07 30.04948 31.55215 6983 ft 282 kts 146°
2026-05-06 10:07 30.03321 31.56503 7839 ft 286 kts 146°
2026-05-06 10:08 30.01664 31.57812 8700 ft 290 kts 146°
2026-05-06 10:08 29.99986 31.59134 9507 ft 295 kts 146°
2026-05-06 10:08 29.98282 31.60479 10309 ft 299 kts 146°
2026-05-06 10:08 29.96504 31.61881 10649 ft 322 kts 146°
2026-05-06 10:09 29.94584 31.63394 10864 ft 346 kts 146°
2026-05-06 10:09 29.92555 31.64992 11361 ft 358 kts 146°
2026-05-06 10:09 29.90482 31.66626 12065 ft 363 kts 146°
2026-05-06 10:09 29.88387 31.68276 12817 ft 366 kts 147°
2026-05-06 10:10 29.86270 31.69944 13498 ft 371 kts 147°
2026-05-06 10:10 29.84119 31.71634 14155 ft 377 kts 147°
2026-05-06 10:10 29.81947 31.73341 14818 ft 381 kts 147°
2026-05-06 10:10 29.79739 31.75076 15496 ft 386 kts 147°
2026-05-06 10:11 29.77511 31.76825 16123 ft 390 kts 148°
2026-05-06 10:11 29.75257 31.78596 16744 ft 395 kts 148°
2026-05-06 10:11 29.72974 31.80386 17363 ft 399 kts 148°
2026-05-06 10:11 29.70669 31.82193 17953 ft 404 kts 148°
2026-05-06 10:12 29.68334 31.84021 18522 ft 408 kts 148°
2026-05-06 10:12 29.65972 31.85869 19094 ft 412 kts 148°
2026-05-06 10:12 29.63598 31.87725 19660 ft 415 kts 148°
2026-05-06 10:12 29.61200 31.89599 20210 ft 418 kts 149°
2026-05-06 10:13 29.58778 31.91491 20720 ft 423 kts 149°
2026-05-06 10:13 29.56333 31.93402 21249 ft 426 kts 149°
2026-05-06 10:13 29.53874 31.95323 21785 ft 429 kts 148°
2026-05-06 10:13 29.51404 31.97251 22280 ft 432 kts 149°
2026-05-06 10:14 29.48898 31.99205 22735 ft 436 kts 149°
2026-05-06 10:14 29.46381 32.01167 23200 ft 439 kts 149°
2026-05-06 10:14 29.43843 32.03145 23686 ft 442 kts 149°
2026-05-06 10:14 29.41297 32.05127 24136 ft 445 kts 149°
2026-05-06 10:15 29.38757 32.07101 24563 ft 447 kts 149°
2026-05-06 10:15 29.36175 32.09109 24990 ft 450 kts 149°
2026-05-06 10:15 29.33578 32.11125 25463 ft 451 kts 149°
2026-05-06 10:15 29.30980 32.13144 26055 ft 449 kts 149°
2026-05-06 10:16 29.28409 32.15142 26664 ft 446 kts 149°
2026-05-06 10:16 29.25841 32.17136 27043 ft 447 kts 149°
2026-05-06 10:16 29.23270 32.19128 27028 ft 445 kts 149°
2026-05-06 10:16 29.20711 32.21110 27047 ft 445 kts 149°
2026-05-06 10:17 29.18147 32.23094 27040 ft 445 kts 149°
2026-05-06 10:17 29.15579 32.25080 27040 ft 445 kts 149°
2026-05-06 10:17 29.13017 32.27061 27041 ft 445 kts 149°
2026-05-06 10:17 29.10450 32.29044 27041 ft 445 kts 149°
2026-05-06 10:18 29.07888 32.31021 27039 ft 445 kts 149°
2026-05-06 10:18 29.05320 32.33002 27039 ft 445 kts 149°
2026-05-06 10:18 29.02751 32.34983 27036 ft 445 kts 149°
2026-05-06 10:18 29.00188 32.36957 27039 ft 445 kts 149°
2026-05-06 10:19 28.97620 32.38936 27032 ft 445 kts 149°
2026-05-06 10:19 28.95049 32.40913 27028 ft 445 kts 149°
2026-05-06 10:19 28.92480 32.42890 27031 ft 445 kts 149°
2026-05-06 10:19 28.89913 32.44863 27025 ft 444 kts 149°
2026-05-06 10:20 28.87359 32.46825 27034 ft 443 kts 149°
2026-05-06 10:20 28.84799 32.48790 27033 ft 443 kts 149°
2026-05-06 10:20 28.82244 32.50752 27028 ft 442 kts 149°
2026-05-06 10:20 28.79692 32.52710 27029 ft 442 kts 150°
2026-05-06 10:21 28.77144 32.54664 27022 ft 442 kts 150°
2026-05-06 10:21 28.74597 32.56615 27020 ft 442 kts 150°
2026-05-06 10:21 28.72040 32.58572 27017 ft 442 kts 150°
2026-05-06 10:21 28.69487 32.60526 27017 ft 442 kts 150°
2026-05-06 10:22 28.66930 32.62481 27018 ft 442 kts 150°
2026-05-06 10:22 28.64376 32.64432 27015 ft 443 kts 150°
2026-05-06 10:22 28.61815 32.66388 27010 ft 443 kts 150°
2026-05-06 10:22 28.59255 32.68342 27005 ft 443 kts 150°
2026-05-06 10:23 28.56691 32.70298 27010 ft 443 kts 150°
2026-05-06 10:23 28.54133 32.72248 27012 ft 443 kts 150°
2026-05-06 10:23 28.51603 32.74176 27003 ft 443 kts 150°
2026-05-06 10:23 28.49046 32.76124 27001 ft 443 kts 150°
2026-05-06 10:24 28.46481 32.78076 26998 ft 443 kts 150°
2026-05-06 10:24 28.43918 32.80025 27001 ft 443 kts 150°
2026-05-06 10:24 28.41329 32.81994 27001 ft 443 kts 150°
2026-05-06 10:24 28.38799 32.83917 27002 ft 443 kts 150°
2026-05-06 10:25 28.36256 32.85847 27000 ft 443 kts 150°
2026-05-06 10:25 28.33743 32.87754 26993 ft 443 kts 150°
2026-05-06 10:25 28.31180 32.89697 26990 ft 443 kts 150°
2026-05-06 10:25 28.28621 32.91637 26992 ft 442 kts 150°
2026-05-06 10:26 28.26066 32.93572 26989 ft 442 kts 150°
2026-05-06 10:26 28.23506 32.95510 26983 ft 442 kts 150°
2026-05-06 10:26 28.20977 32.97425 26966 ft 432 kts 150°
2026-05-06 10:26 28.18506 32.99296 26682 ft 424 kts 150°
2026-05-06 10:27 28.16071 33.01138 26367 ft 418 kts 150°
2026-05-06 10:27 28.13660 33.02958 25931 ft 415 kts 150°
2026-05-06 10:27 28.11266 33.04765 25513 ft 412 kts 150°
2026-05-06 10:27 28.08893 33.06555 25082 ft 409 kts 150°
2026-05-06 10:28 28.06534 33.08334 24649 ft 406 kts 150°
2026-05-06 10:28 28.04191 33.10100 24215 ft 403 kts 150°
2026-05-06 10:28 28.01863 33.11856 23787 ft 401 kts 149°
2026-05-06 10:28 27.99577 33.13659 23346 ft 400 kts 148°
2026-05-06 10:29 27.97332 33.15487 22918 ft 397 kts 147°
2026-05-06 10:29 27.95099 33.17322 22483 ft 395 kts 147°
2026-05-06 10:29 27.92880 33.19143 22072 ft 393 kts 147°
2026-05-06 10:29 27.90676 33.20946 21654 ft 390 kts 147°
2026-05-06 10:30 27.88481 33.22736 21238 ft 387 kts 147°
2026-05-06 10:30 27.86303 33.24508 20824 ft 385 kts 147°
2026-05-06 10:30 27.84465 33.26000 20475 ft 383 kts 147°
2026-05-06 10:30 27.82310 33.27747 20066 ft 381 kts 147°
2026-05-06 10:31 27.80169 33.29481 19656 ft 379 kts 147°
2026-05-06 10:31 27.78050 33.31197 19257 ft 377 kts 147°
2026-05-06 10:31 27.75953 33.32897 18861 ft 374 kts 147°
2026-05-06 10:31 27.73859 33.34594 18462 ft 372 kts 147°
2026-05-06 10:32 27.71759 33.36289 18050 ft 370 kts 147°
2026-05-06 10:32 27.69752 33.37908 17668 ft 368 kts 147°
2026-05-06 10:32 27.67676 33.39583 17261 ft 366 kts 147°
2026-05-06 10:32 27.65800 33.41098 16902 ft 364 kts 147°
2026-05-06 10:33 27.64009 33.42540 16564 ft 362 kts 147°
2026-05-06 10:33 27.61981 33.44175 16164 ft 360 kts 147°
2026-05-06 10:33 27.59946 33.45817 15776 ft 358 kts 147°
2026-05-06 10:33 27.58153 33.47264 15436 ft 356 kts 147°
2026-05-06 10:34 27.56387 33.48685 15096 ft 355 kts 147°
2026-05-06 10:34 27.54509 33.50198 14711 ft 354 kts 147°
2026-05-06 10:34 27.52825 33.51554 14382 ft 352 kts 147°
2026-05-06 10:34 27.51150 33.52808 14059 ft 348 kts 154°
2026-05-06 10:35 27.48970 33.53934 13687 ft 343 kts 160°
2026-05-06 10:35 27.47030 33.54828 13340 ft 342 kts 161°
2026-05-06 10:35 27.44879 33.55815 12968 ft 339 kts 160°
2026-05-06 10:35 27.42923 33.56728 12646 ft 337 kts 160°
2026-05-06 10:36 27.40841 33.57721 12278 ft 335 kts 159°
2026-05-06 10:36 27.38859 33.58682 11934 ft 333 kts 159°
2026-05-06 10:36 27.36767 33.59699 11564 ft 330 kts 159°
2026-05-06 10:36 27.34670 33.60661 11192 ft 327 kts 164°
2026-05-06 10:37 27.32491 33.61358 10818 ft 325 kts 168°
2026-05-06 10:37 27.30298 33.61961 10457 ft 322 kts 168°
2026-05-06 10:37 27.28153 33.62546 10324 ft 313 kts 168°
2026-05-06 10:37 27.26092 33.63128 10179 ft 305 kts 167°
2026-05-06 10:38 27.24067 33.63719 10067 ft 296 kts 167°
2026-05-06 10:38 27.22104 33.64298 9875 ft 289 kts 167°
2026-05-06 10:38 27.20160 33.64873 9586 ft 288 kts 167°
2026-05-06 10:38 27.18227 33.65446 9319 ft 286 kts 167°
2026-05-06 10:39 27.16306 33.66016 9038 ft 284 kts 166°
2026-05-06 10:39 27.14397 33.66581 8736 ft 284 kts 166°
2026-05-06 10:39 27.12493 33.67146 8449 ft 282 kts 166°
2026-05-06 10:39 27.10588 33.67711 8091 ft 284 kts 166°
2026-05-06 10:40 27.08702 33.68270 7784 ft 283 kts 166°
2026-05-06 10:40 27.06799 33.68833 7499 ft 282 kts 166°
2026-05-06 10:40 27.05092 33.69338 7240 ft 281 kts 166°
2026-05-06 10:40 27.03210 33.69894 6959 ft 279 kts 166°
2026-05-06 10:41 27.01519 33.70395 6702 ft 278 kts 166°
2026-05-06 10:41 27.00031 33.70837 6549 ft 273 kts 166°
2026-05-06 10:41 26.98235 33.71369 6427 ft 265 kts 166°
2026-05-06 10:41 26.96520 33.71878 6335 ft 257 kts 166°
2026-05-06 10:42 26.95160 33.72280 6244 ft 251 kts 166°
2026-05-06 10:42 26.93674 33.73158 6121 ft 243 kts 132°
2026-05-06 10:42 26.92889 33.74779 5960 ft 240 kts 103°
2026-05-06 10:42 26.92848 33.76535 5577 ft 243 kts 78°
2026-05-06 10:43 26.93400 33.78194 5150 ft 247 kts 56°
2026-05-06 10:43 26.94395 33.79799 4629 ft 256 kts 53°
2026-05-06 10:43 26.95336 33.81279 4170 ft 265 kts 53°
2026-05-06 10:44 26.97954 33.84153 3326 ft 263 kts 16°
2026-05-06 10:44 26.99607 33.84346 3173 ft 242 kts 352°
2026-05-06 10:44 27.00693 33.84122 3036 ft 229 kts 347°
2026-05-06 10:44 27.02188 33.83727 2689 ft 219 kts 345°
2026-05-06 10:45 27.03652 33.83300 2394 ft 212 kts 343°
2026-05-06 10:45 27.05034 33.82893 2306 ft 200 kts 343°
2026-05-06 10:45 27.06388 33.82493 2073 ft 199 kts 344°
2026-05-06 10:45 27.07694 33.82106 1805 ft 195 kts 345°
2026-05-06 10:46 27.08976 33.81726 1570 ft 183 kts 346°
2026-05-06 10:46 27.10153 33.81379 1328 ft 168 kts 347°
2026-05-06 10:46 27.11225 33.81063 1107 ft 152 kts 346°
2026-05-06 10:46 27.12229 33.80767 930 ft 148 kts 346°
2026-05-06 10:47 27.13233 33.80471 729 ft 148 kts 346°
2026-05-06 10:47 27.14239 33.80174 527 ft 150 kts 346°
2026-05-06 10:47 27.15244 33.79877 319 ft 149 kts 346°
2026-05-06 10:47 27.16250 33.79586 115 ft 148 kts 346°
2026-05-06 10:48 27.17141 33.79319 108 ft 112 kts 345°
2026-05-06 10:48 27.17738 33.79154 98 ft 56 kts 359°
2026-05-06 10:48 27.18020 33.79213 98 ft 32 kts 14°
2026-05-06 10:48 27.18225 33.79196 98 ft 29 kts 346°
2026-05-06 10:49 27.18414 33.79140 98 ft 27 kts 345°
2026-05-06 10:49 27.18591 33.79088 94 ft 25 kts 345°
2026-05-06 10:49 27.18756 33.79039 92 ft 24 kts 345°
2026-05-06 10:49 27.18909 33.79006 86 ft 17 kts 19°
2026-05-06 10:50 27.18952 33.79091 86 ft 14 kts 75°
2026-05-06 10:50 27.18980 33.79208 72 ft 17 kts 75°
2026-05-06 10:50 27.19016 33.79359 57 ft 22 kts 75°
2026-05-06 10:50 27.19058 33.79534 51 ft 23 kts 75°
2026-05-06 10:51 27.19090 33.79670 55 ft 17 kts 75°
2026-05-06 10:51 27.19121 33.79799 57 ft 17 kts 76°
2026-05-06 10:51 27.19151 33.79923 59 ft 16 kts 74°
2026-05-06 10:51 27.19182 33.80046 57 ft 16 kts 74°
2026-05-06 10:52 27.19210 33.80168 54 ft 16 kts 76°
2026-05-06 10:52 27.19189 33.80232 56 ft 7 kts 159°
2026-05-06 10:52 27.19144 33.80245 50 ft 7 kts 164°
2026-05-06 10:52 27.19100 33.80259 51 ft 7 kts 165°
2026-05-06 10:53 27.19056 33.80272 51 ft 6 kts 165°
2026-05-06 10:53 27.19044 33.80289 50 ft 2 kts 83°
2026-05-06 10:53 27.19046 33.80307 54 ft 2 kts 77°
2026-05-06 10:53 27.19050 33.80325 57 ft 2 kts 76°
2026-05-06 10:54 27.19054 33.80343 51 ft 2 kts 75°
2026-05-06 10:54 27.19057 33.80356 57 ft 0 kts 75°